﻿"﻿最低氣溫 (攝氏度) - �j�Ѥs"
"Minimum Temperature (°C) - Tate's Cairn"
年/Year,月/Month,日/Day,數值/Value,"數據完整性/data Completeness"
2024,1,1,13.1,C
2024,1,2,11.6,C
2024,1,3,8.8,C
2024,1,4,8.4,C
2024,1,5,10.9,C
2024,1,6,14.3,C
2024,1,7,13.2,C
2024,1,8,11.8,C
2024,1,9,13.3,C
2024,1,10,12.1,C
2024,1,11,11.7,C
2024,1,12,11.6,C
2024,1,13,12.1,C
2024,1,14,13.1,C
2024,1,15,13.4,C
2024,1,16,11.5,C
2024,1,17,11.9,C
2024,1,18,14.4,C
2024,1,19,15.2,#
2024,1,20,14.0,C
2024,1,21,9.3,C
2024,1,22,3.4,C
2024,1,23,0.5,C
2024,1,24,-0.3,C
2024,1,25,2.9,C
2024,1,26,6.7,C
2024,1,27,7.8,C
2024,1,28,6.6,C
2024,1,29,9.4,C
2024,1,30,12.2,C
2024,1,31,14.0,C
2024,2,1,16.9,C
2024,2,2,14.6,C
2024,2,3,14.0,C
2024,2,4,15.7,C
2024,2,5,15.1,C
2024,2,6,13.0,C
2024,2,7,7.7,C
2024,2,8,5.4,C
2024,2,9,5.2,C
2024,2,10,6.0,C
2024,2,11,10.4,C
2024,2,12,10.4,C
2024,2,13,11.4,C
2024,2,14,14.6,#
2024,2,15,15.4,C
2024,2,16,14.0,C
2024,2,17,12.7,C
2024,2,18,16.3,C
2024,2,19,17.2,C
2024,2,20,18.3,C
2024,2,21,18.1,C
2024,2,22,18.0,C
2024,2,23,12.5,#
2024,2,24,10.3,C
2024,2,25,8.5,C
2024,2,26,9.7,C
2024,2,27,9.0,C
2024,2,28,12.4,C
2024,2,29,8.2,C
2024,3,1,4.9,C
2024,3,2,3.9,C
2024,3,3,8.4,C
2024,3,4,13.4,C
2024,3,5,19.4,C
2024,3,6,14.4,C
2024,3,7,10.6,C
2024,3,8,9.7,C
2024,3,9,9.4,C
2024,3,10,10.0,C
2024,3,11,11.6,C
2024,3,12,10.3,C
2024,3,13,12.9,#
2024,3,14,13.1,C
2024,3,15,14.0,C
2024,3,16,15.2,C
2024,3,17,17.6,C
2024,3,18,15.6,C
2024,3,19,13.3,C
2024,3,20,12.8,C
2024,3,21,12.6,C
2024,3,22,16.1,C
2024,3,23,18.2,C
2024,3,24,19.4,C
2024,3,25,19.2,C
2024,3,26,18.7,C
2024,3,27,16.1,C
2024,3,28,17.9,C
2024,3,29,19.6,C
2024,3,30,20.0,C
2024,3,31,21.7,C
"*** 沒有數據/unavailable"
"# 數據不完整/data incomplete"
"C 數據完整/data Complete"
